Weather History for EHBK - November, 2013

Change the Weather History Date:

Tuesday, November 5, 2013

  Actual Average Record
Temperature  
Mean Temperature 42 °F -  
Max Temperature 48 °F 46 °F 66 °F (2011)
Min Temperature 37 °F 36 °F 35 °F (2003)
Degree Days  
Heating Degree Days 22    
Moisture  
Dew Point 40 °F    
Average Humidity 88    
Maximum Humidity 100    
Minimum Humidity 76    
Precipitation  
Precipitation 0.20 in 0.09 in - ()
Sea Level Pressure  
Sea Level Pressure 29.42 in    
Wind  
Wind Speed 12 mph ()    
Max Wind Speed 26 mph    
Max Gust Speed 38 mph    
Visibility 6.7 miles    
Events Rain    
Averages and records for this station are not official NWS values.
T = Trace of Precipitation, MM = Missing Value Source: Averaged Metar Reports

Daily Weather History Graph

Daily Weather History Graph

Search for Another Location

Airport or City:

Trip Planner

Search our weather history database for the weather conditions in past years. The results will help you decide how hot, cold, wet, or windy it might be!

Date:

Astronomy

Nov. 05, 2013 Rise Set
Actual Time 7:35 AM CET 5:04 PM CET
Civil Twilight 7:00 AM CET 5:39 PM CET
Nautical Twilight 6:21 AM CET 6:18 PM CET
Astronomical Twilight 5:43 AM CET 6:57 PM CET
Moon 9:43 AM CET (11/5) 6:40 PM CET (11/5)
Length of Visible Light 10h 38m
Length of Day
9h 28m
Waxing Crescent, 5% of the Moon is Illuminated
Nov 5
Waxing Crescent
Nov 10
First Quarter
Nov 17
Full
Nov 25
Last Quarter
Dec 3
New

Hourly Weather History & Observations

Time (CET) Temp. Windchill Dew Point Humidity Pressure Visibility Wind Dir Wind Speed Gust Speed Precip Events Conditions
12:25 AM 42.8 °F 36.2 °F 39.2 °F 87% 29.47 in 6.2 mi SW 12.7 mph - N/A Rain Light Rain
12:55 AM 42.8 °F 37.0 °F 39.2 °F 87% 29.47 in 6.2 mi WSW 10.4 mph - N/A Rain Light Rain
1:00 AM 43 °F - 40 °F 84% 29.50 in 9 mi WSW 8.9 mph - - Rain Light Rain Showers
1:25 AM 42.8 °F 37.5 °F 39.2 °F 87% 29.47 in 6.2 mi WSW 9.2 mph - N/A Rain Light Rain
1:55 AM 42.8 °F 37.0 °F 39.2 °F 87% 29.50 in 6.2 mi SW 10.4 mph - N/A   Light Drizzle
2:25 AM 42.8 °F 37.0 °F 39.2 °F 87% 29.50 in 6.2 mi SW 10.4 mph - N/A   Unknown
2:55 AM 41.0 °F 34.3 °F 39.2 °F 93% 29.50 in 6.2 mi SW 11.5 mph - N/A   Unknown
3:25 AM 42.8 °F 37.0 °F 39.2 °F 87% 29.50 in 6.2 mi SW 10.4 mph - N/A   Mostly Cloudy
3:55 AM 41.0 °F 33.5 °F 37.4 °F 87% 29.50 in 6.2 mi SW 13.8 mph - N/A   Unknown
4:00 AM 41 °F - 38 °F 83%  in 11 mi SW 13.4 mph - -   Partly Cloudy
4:25 AM 41.0 °F 34.3 °F 37.4 °F 87% 29.50 in 6.2 mi SW 11.5 mph - N/A   Unknown
4:55 AM 39.2 °F 32.5 °F 37.4 °F 93% 29.50 in 6.2 mi SW 10.4 mph - N/A   Unknown
5:25 AM 39.2 °F 32.5 °F 37.4 °F 93% 29.50 in 6.2 mi SW 10.4 mph - N/A   Unknown
5:55 AM 39.2 °F 32.0 °F 37.4 °F 93% 29.50 in 6.2 mi SW 11.5 mph - N/A   Unknown
6:25 AM 39.2 °F 31.6 °F 35.6 °F 87% 29.50 in 6.2 mi SW 12.7 mph - N/A   Unknown
6:55 AM 37.4 °F 29.3 °F 35.6 °F 93% 29.50 in 6.2 mi SSW 12.7 mph - N/A   Unknown
7:00 AM 38 °F - 36 °F 91% 29.54 in 8 mi SSW 13.4 mph - -   Partly Cloudy
7:25 AM 37.4 °F 28.9 °F 35.6 °F 93% 29.50 in 6.2 mi SSW 13.8 mph - N/A   Unknown
7:55 AM 39.2 °F 31.6 °F 35.6 °F 87% 29.50 in 6.2 mi SSW 12.7 mph - N/A   Unknown
8:25 AM 39.2 °F 31.2 °F 35.6 °F 87% 29.50 in 6.2 mi SSW 13.8 mph - N/A   Partly Cloudy
8:55 AM 39.2 °F 31.2 °F 35.6 °F 87% 29.50 in 6.2 mi SSW 13.8 mph - N/A   Scattered Clouds
9:25 AM 41.0 °F 33.1 °F 37.4 °F 87% 29.50 in 6.2 mi South 15.0 mph - N/A   Unknown
9:55 AM 42.8 °F 35.4 °F 37.4 °F 81% 29.47 in 6.2 mi South 15.0 mph - N/A   Unknown
10:00 AM 43 °F - 38 °F 76% 29.51 in 19 mi SSW 15.7 mph - -   Overcast
10:25 AM 42.8 °F 35.4 °F 39.2 °F 87% 29.47 in 6.2 mi South 15.0 mph - N/A   Unknown
10:55 AM 44.6 °F 37.8 °F 39.2 °F 81% 29.44 in 6.2 mi SSW 15.0 mph - N/A   Unknown
11:25 AM 44.6 °F 36.9 °F 37.4 °F 76% 29.44 in 6.2 mi SSW 18.4 mph - N/A   Unknown
11:55 AM 44.6 °F 36.1 °F 37.4 °F 76% 29.44 in 6.2 mi SSW 21.9 mph - N/A   Unknown
12:25 PM 44.6 °F 36.4 °F 37.4 °F 76% 29.42 in 6.2 mi SSW 20.7 mph - N/A   Scattered Clouds
12:55 PM 42.8 °F 32.9 °F 37.4 °F 81% 29.42 in 6.2 mi SSW 26.5 mph 38.0 mph N/A Rain Light Rain Showers
1:00 PM 42 °F - 38 °F 79% 29.43 in 4 mi SSW 22.4 mph - - Rain Light Rain Showers
1:25 PM 42.8 °F 33.5 °F 37.4 °F 81% 29.39 in 4.3 mi SSW 23.0 mph 38.0 mph N/A Rain Light Rain Showers
1:55 PM 41.0 °F 33.1 °F 39.2 °F 93% 29.36 in 6.2 mi South 15.0 mph - N/A Rain Light Rain
2:25 PM 41.0 °F 31.9 °F 39.2 °F 93% 29.36 in 6.2 mi South 19.6 mph - N/A Rain Light Rain
2:55 PM 42.8 °F 34.3 °F 39.2 °F 87% 29.33 in 6.2 mi South 19.6 mph - N/A   Light Drizzle
3:25 PM 42.8 °F 34.0 °F 41.0 °F 93% 29.33 in 6.2 mi SSW 20.7 mph - N/A Rain Heavy Drizzle
3:55 PM 42.8 °F 34.3 °F 41.0 °F 93% 29.30 in 6.2 mi South 19.6 mph - N/A Rain Light Rain
4:00 PM 43 °F - 41 °F 90% 29.33 in 10 mi SSW 17.9 mph - - Rain Rain
4:25 PM 42.8 °F 35.1 °F 41.0 °F 93% 29.30 in 6.2 mi SSW 16.1 mph - N/A Rain Light Rain
4:55 PM 42.8 °F 34.8 °F 41.0 °F 93% 29.30 in 6.2 mi South 17.3 mph - N/A Rain Light Rain Showers
5:25 PM 42.8 °F 35.1 °F 42.8 °F 100% 29.30 in 6.2 mi SSW 16.1 mph - N/A   Heavy Drizzle
5:55 PM 44.6 °F 37.4 °F 42.8 °F 93% 29.27 in 6.2 mi SSW 16.1 mph - N/A Rain Light Rain Showers
6:25 PM 44.6 °F 38.8 °F 42.8 °F 93% 29.27 in 3.1 mi SSW 11.5 mph - N/A Rain Light Rain Showers
6:55 PM 44.6 °F 38.1 °F 44.6 °F 100% 29.27 in 6.2 mi SW 13.8 mph - N/A   Scattered Clouds
7:00 PM 45 °F - 44 °F 94% 29.31 in 16 mi SW 13.4 mph - - Rain Rain
7:25 PM 46.4 °F 40.4 °F 44.6 °F 93% 29.30 in 6.2 mi SW 13.8 mph - N/A   Partly Cloudy
7:55 PM 46.4 °F 40.4 °F 44.6 °F 93% 29.30 in 6.2 mi SW 13.8 mph - N/A   Mostly Cloudy
8:25 PM 46.4 °F 41.1 °F 46.4 °F 100% 29.33 in 6.2 mi WSW 11.5 mph - N/A Rain Light Rain
8:55 PM 48.2 °F - 46.4 °F 93% 29.33 in 6.2 mi WSW 10.4 mph - N/A   Mostly Cloudy
9:25 PM 48.2 °F - 46.4 °F 93% 29.36 in 4.3 mi West 13.8 mph 25.3 mph N/A Rain Light Rain Showers
9:55 PM 48.2 °F - 44.6 °F 87% 29.36 in 6.2 mi West 9.2 mph - N/A Rain Light Rain
10:00 PM 47 °F - 45 °F 92% 29.39 in 7 mi West 11.2 mph - - Rain Light Rain Showers
10:25 PM 48.2 °F - 44.6 °F 87% 29.39 in 6.2 mi West 12.7 mph - N/A   Overcast
10:55 PM 46.4 °F 40.7 °F 42.8 °F 87% 29.39 in 6.2 mi West 12.7 mph - N/A   Mostly Cloudy
11:25 PM 46.4 °F 41.1 °F 42.8 °F 87% 29.42 in 6.2 mi WSW 11.5 mph - N/A   Unknown
11:55 PM 46.4 °F 40.7 °F 42.8 °F 87% 29.42 in 6.2 mi WSW 12.7 mph - N/A   Unknown